Jesus Teran International Airport
MMAS : rendu visible

Aérodrome :











RETROUVEZ-NOUS SUR...

 
LOGIN :

S'inscrire | Disclaimer

   EN    FR    IT 

 









Légende :    VFR   VFR Marginal   IFR   IFR Intensif   IFR Très Intensif
Visi : 
Plafond : 
>= 8 km
>= 3000ft
5 à 8 km
1000 à 3000 ft
1500m à 5 km
500 à 1000 ft
800 à 1500m
200 à 500 ft
< 800m
< 200 ft
Symboles :   Orages  Brouillard  Fortes neiges  Fortes précipitations  Vent > 20 kt






- Altitude de l'aérodrome : 6112 ft
- Code IATA : AGU


MMAS - Jesus Teran International

DERNIER METAR :
  • 171144Z 36010KT 10SM SKC 11/03 A3015 RMK SLP067

METARs EXPIRÉS :
  • 171043Z 36008KT 10SM SKC 11/03 A3014
  • 170946Z 02005KT 10SM SKC 12/03 A3015

TAF TAF MMAS
Valide du 17 à 06h jusqu'au 18 à 06h UTC


170428Z 1706/1806 33005KT P6SM BKN200
FM171800 30008KT P6SM SCT250
FM180300 23005KT P6SM SCT250



MET'MAP, la Météo Aéronautique d'un coup d'oeil ! - Copyright ORBIFLY Décembre 2007 - Disclaimer

ORBIFLY MET'MAP TEAM :

Programmation & Développement : Alexandra Zaïnal
Sur une idée originale de : Baudouin d'Aumeries
Assistance à la programmation : Marc-Olivier Méhu
Soutien technique & logistique : Manuel Goepfert

Contact : metmap@orbifly.com




SOURCES & CREDITS :

   NOAA       Earth
Advisory